Weather History for Fort Sill, OK

Change the Weather History Date:

Tuesday, March 5, 2013

  Actual Average Record
Temperature  
Mean Temperature 44 °F -  
Max Temperature 52 °F 63 °F 90 °F (1956)
Min Temperature 36 °F 34 °F 14 °F (1960)
Degree Days  
Heating Degree Days 21    
Moisture  
Dew Point 21 °F    
Average Humidity 43    
Maximum Humidity 66    
Minimum Humidity 25    
Precipitation  
Precipitation 0.04 in - - ()
Sea Level Pressure  
Sea Level Pressure 30.25 in    
Wind  
Wind Speed 27 mph (North)    
Max Wind Speed 38 mph    
Max Gust Speed 50 mph    
Visibility 10 miles    
Events      
Averages and records for this station are not official NWS values.
T = Trace of Precipitation, MM = Missing Value Source: NWS Daily Summary

Daily Weather History Graph

Daily Weather History Graph

Search for Another Location

Airport:

Trip Planner

Search our weather history database for the weather conditions in past years. The results will help you decide how hot, cold, wet, or windy it might be!

Date:

Astronomy

Mar. 05, 2013 Rise Set
Actual Time 6:57 AM CST 6:33 PM CST
Civil Twilight 6:32 AM CST 6:58 PM CST
Nautical Twilight 6:02 AM CST 7:27 PM CST
Astronomical Twilight 5:33 AM CST 7:56 PM CST
Moon 2:00 AM CST (3/5) 12:24 PM CST (3/5)
Length of Visible Light 12h 26m
Length of Day
11h 36m
Last Quarter, 40% of the Moon is Illuminated
Mar 5
Last Quarter
Mar 11
New
Mar 19
First Quarter
Mar 27
Full
Apr 2
Last Quarter

Hourly Weather History & Observations

Time (CST) Temp. Windchill Dew Point Humidity Pressure Visibility Wind Dir Wind Speed Gust Speed Precip Events Conditions
12:08 AM 44.6 °F 33.6 °F 33.8 °F 66% 30.01 in 10.0 mi North 38.0 mph 49.5 mph N/A   Mostly Cloudy
12:09 AM 44.6 °F 33.6 °F 33.8 °F 66% 30.01 in 10.0 mi North 38.0 mph 49.5 mph N/A   Squalls
12:12 AM 44.6 °F 33.9 °F 33.8 °F 66% 30.03 in 10.0 mi North 35.7 mph 48.3 mph N/A   Light Drizzle
12:18 AM 44.6 °F 34.7 °F 33.8 °F 66% 30.05 in 10.0 mi North 29.9 mph 47.2 mph N/A   Light Drizzle
12:21 AM 44.6 °F 33.6 °F 33.8 °F 66% 30.05 in 10.0 mi North 38.0 mph 47.2 mph N/A   Mostly Cloudy
12:23 AM 44.6 °F 34.6 °F 33.8 °F 66% 30.06 in 10.0 mi North 31.1 mph 47.2 mph N/A   Squalls
12:58 AM 43.7 °F 33.2 °F 33.1 °F 66% 30.08 in 10.0 mi North 32.2 mph 43.7 mph 0.03 in   Scattered Clouds
1:58 AM 43.0 °F 32.4 °F 29.7 °F 59% 30.09 in 10.0 mi NNE 31.1 mph 39.1 mph 0.01 in   Clear
2:58 AM 43.5 °F 33.1 °F 25.9 °F 50% 30.12 in 10.0 mi North 31.1 mph 44.9 mph N/A   Overcast
3:35 AM 44.6 °F 34.6 °F 23.0 °F 43% 30.15 in 10.0 mi North 31.1 mph 41.4 mph N/A   Squalls
3:58 AM 43.7 °F 34.3 °F 19.6 °F 38% 30.16 in 10.0 mi North 25.3 mph 39.1 mph N/A   Overcast
4:13 AM 42.8 °F 32.3 °F 19.4 °F 39% 30.17 in 10.0 mi North 29.9 mph 38.0 mph N/A   Squalls
4:27 AM 42.8 °F 32.3 °F 15.8 °F 34% 30.17 in 10.0 mi North 29.9 mph 36.8 mph N/A   Squalls
4:58 AM 41.5 °F 30.6 °F 15.6 °F 35% 30.20 in 10.0 mi North 29.9 mph 35.7 mph N/A   Clear
5:58 AM 38.8 °F 28.8 °F 18.1 °F 43% 30.25 in 10.0 mi North 20.7 mph 29.9 mph N/A   Clear
6:58 AM 36.7 °F 26.3 °F 10.9 °F 35% 30.31 in 10.0 mi North 19.6 mph 32.2 mph N/A   Clear
7:58 AM 36.3 °F 25.8 °F 14.4 °F 41% 30.33 in 10.0 mi North 19.6 mph 26.5 mph N/A   Clear
8:58 AM 38.8 °F 29.1 °F 15.8 °F 39% 30.38 in 10.0 mi North 19.6 mph 25.3 mph N/A   Clear
9:58 AM 41.7 °F 32.1 °F 15.1 °F 34% 30.39 in 10.0 mi North 23.0 mph 29.9 mph N/A   Clear
10:58 AM 44.2 °F 36.2 °F 15.1 °F 31% 30.40 in 10.0 mi NNW 19.6 mph 27.6 mph N/A   Clear
11:58 AM 46.9 °F - 16.5 °F 30% 30.40 in 10.0 mi North 17.3 mph 27.6 mph N/A   Clear
12:58 PM 49.1 °F - 18.3 °F 30% 30.38 in 10.0 mi North 17.3 mph 24.2 mph N/A   Clear
1:58 PM 49.8 °F - 17.1 °F 27% 30.35 in 10.0 mi NNW 15.0 mph 24.2 mph N/A   Clear
2:58 PM 52.0 °F - 17.8 °F 26% 30.34 in 10.0 mi North 16.1 mph 25.3 mph N/A   Clear
3:58 PM 52.7 °F - 17.6 °F 25% 30.32 in 10.0 mi North 16.1 mph 23.0 mph N/A   Clear
4:58 PM 52.0 °F - 16.7 °F 25% 30.34 in 10.0 mi North 16.1 mph - N/A   Clear
5:58 PM 49.8 °F - 17.1 °F 27% 30.34 in 10.0 mi NNW 12.7 mph - N/A   Clear
6:58 PM 46.0 °F 42.5 °F 18.7 °F 34% 30.36 in 10.0 mi NNW 6.9 mph - N/A   Clear
7:58 PM 44.4 °F 42.0 °F 17.8 °F 34% 30.37 in 10.0 mi NW 4.6 mph - N/A   Clear
8:58 PM 41.2 °F 37.3 °F 18.3 °F 40% 30.37 in 10.0 mi NNE 5.8 mph - N/A   Clear
9:58 PM 38.3 °F - 18.9 °F 46% 30.39 in 10.0 mi Calm Calm - N/A   Clear
10:58 PM 36.9 °F 34.3 °F 19.6 °F 50% 30.40 in 10.0 mi WNW 3.5 mph - N/A   Clear
11:58 PM 37.2 °F 31.2 °F 20.3 °F 50% 30.40 in 10.0 mi NNW 8.1 mph - N/A   Clear